AO-07 1 07530U 74089B 26124.66595154 -.00000053 00000-0 -42139-4 0 9992 2 07530 101.9923 137.4560 0012037 212.7093 266.3204 12.53697382355063 UO-11 1 14781U 84021B 26124.86012703 .00001371 00000-0 14549-3 0 9996 2 14781 97.8029 90.9309 0006970 338.8198 21.2730 14.90680703250673 AO-27 1 22825U 93061C 26124.78671485 .00000099 00000-0 54581-4 0 9994 2 22825 98.6896 192.2112 0007613 221.7333 138.3270 14.30930321700796 FO-29 1 24278U 96046B 26124.54078337 -.00000019 00000-0 17761-4 0 9997 2 24278 98.5288 339.3794 0349337 209.5593 148.5390 13.53272302467268 GO-32 1 25397U 98043D 26124.51359904 .00000053 00000-0 42900-4 0 9998 2 25397 99.0064 116.1738 0001432 28.9874 331.1384 14.24419708445119 ISS 1 25544U 98067A 26124.78032786 .00006047 00000-0 11742-3 0 9991 2 25544 51.6304 154.9608 0007349 23.5190 336.6133 15.49094049565025 NO-44 1 26931U 01043C 26124.78506441 .00000139 00000-0 82637-4 0 9992 2 26931 67.0523 356.5297 0006399 263.9375 96.0998 14.31939157284238 SO-50 1 27607U 02058C 26124.72745583 .00001276 00000-0 16755-3 0 9996 2 27607 64.5521 263.4371 0075631 270.3840 88.8600 14.82953014258012 CO-55 1 27844U 03031E 26124.76399369 .00000292 00000-0 14551-3 0 9991 2 27844 98.6751 133.8676 0008659 317.3674 42.6832 14.24308570185492 RS-22 1 27939U 03042A 26124.89453341 .00001484 00000-0 23705-3 0 9998 2 27939 98.3463 308.0332 0012290 50.3460 57.2115 14.73392547209171 CO-65 1 32785U 08021C 26124.88836267 .00005696 00000-0 36367-3 0 9993 2 32785 97.8265 105.4276 0009274 165.5823 194.5671 15.09046129978667 CO-66 1 32791U 08021J 26124.50348233 .00017973 00000-0 59676-3 0 9999 2 32791 97.7526 120.3709 0005135 101.3159 258.8659 15.31272851980607 RS-30 1 32953U 08025A 26124.80125876 .00000035 00000-0 18099-3 0 9997 2 32953 82.5080 22.4265 0020518 47.4464 312.8343 12.43177801814307 SRMSAT 1 37841U 11058D 26124.67550574 .00000422 00000-0 85094-4 0 9990 2 37841 19.9733 322.8391 0011784 85.3827 335.7134 14.11565762751668 ZACUBE-1 1 39417U 13066B 26124.80987168 .00005393 00000-0 42082-3 0 9991 2 39417 97.8130 86.9130 0043074 38.9211 321.5100 15.00846198674228 Delfi-N3xt 1 39428U 13066N 26124.73482052 .00009447 00000-0 83074-3 0 9997 2 39428 97.8358 45.1023 0075064 353.0046 7.0119 14.94576863668131 GOMX-1 1 39430U 13066Q 26124.80727801 .00002413 00000-0 36849-3 0 9996 2 39430 97.6507 328.0041 0127893 216.3374 142.9099 14.69295096663548 LO-74 1 39440U 13066AA 26124.78480661 .00003143 00000-0 29497-3 0 9996 2 39440 97.8881 73.6000 0058175 169.8417 190.3993 14.93447275670510 AO-73 1 39444U 13066AE 26124.49610664 .00008427 00000-0 53024-3 0 9999 2 39444 97.8257 95.0571 0036396 355.8434 4.2486 15.08910363673073 DTUSAT-2 1 40030U 14033W 26124.70428656 .00007597 00000-0 41675-3 0 9995 2 40030 98.0871 119.6935 0008795 35.6360 324.5456 15.14451257646109 LILACSAT-2 1 40908U 15049K 26124.84398507 .00017307 00000-0 30958-3 0 9995 2 40908 97.4703 160.0735 0008380 62.0250 298.1848 15.50029505589036 Horyu-4 1 41340U 16012D 26124.82968610 .00159251 00000-0 97139-3 0 9992 2 41340 30.9902 31.8050 0006247 315.7644 44.2512 15.75803615563938 Lapan A3 1 41603U 16040E 26124.84809726 .00004052 00000-0 12997-3 0 9996 2 41603 97.1490 122.4294 0010839 160.9953 199.1697 15.32829326548172 CAS-2T 1 41847U 16066G 26124.81172116 .00000655 00000-0 10235-3 0 9995 2 41847 98.3827 201.0379 0340900 261.1469 95.0987 14.44579600498537 TechnoSat 1 42829U 17042E 26124.82785274 .00002959 00000-0 21386-3 0 9995 2 42829 97.4248 284.1568 0016091 238.4978 121.4677 15.04697423480183 AO-91 1 43017U 17073E 26124.53872417 .00009023 00000-0 39690-3 0 9999 2 43017 97.4757 352.6637 0154237 119.0079 242.6708 15.11924179458799 S-Net D 1 43186U 18014G 26124.77972906 .00004687 00000-0 24547-3 0 9998 2 43186 97.5393 29.8489 0008846 157.2270 202.9357 15.16267033452182 S-Net B 1 43187U 18014H 26124.72434117 .00004970 00000-0 26025-3 0 9999 2 43187 97.5399 29.7792 0009608 153.9377 206.2341 15.16237805452176 S-Net A 1 43188U 18014J 26124.71282671 .00004719 00000-0 24708-3 0 9992 2 43188 97.5409 29.9685 0009452 154.5782 205.5917 15.16273197452171 S-Net C 1 43189U 18014K 26124.72797903 .00005019 00000-0 26277-3 0 9990 2 43189 97.5427 30.0515 0011036 149.1136 211.0748 15.16229056450729 Ten-Koh 1 43677U 18084G 26124.77876892 .00001979 00000-0 15297-3 0 9990 2 43677 98.0785 315.3198 0007399 261.8652 98.1732 15.02757396409642 PO-101 1 43678U 18084H 26124.81963253 .00003014 00000-0 24576-3 0 9996 2 43678 98.1072 319.1764 0012601 320.6184 39.4121 15.00239085409716 QO-100 1 43700U 18090A 26124.84143814 .00000000 00000-0 00000 0 0 9999 2 43700 0.0139 279.5314 0001684 155.2981 116.6183 1.00270453 27243 MinXSS-2 1 43758U 18099A 26124.77408532 .00032499 00000-0 70919-3 0 9991 2 43758 97.4551 199.8828 0008302 71.4779 288.7371 15.44123162407425 AO-95 1 43770U 18099N 26124.80566255 .00011739 00000-0 46152-3 0 9992 2 43770 97.4409 185.2376 0010195 135.6924 224.5132 15.25777802406603 SNUSat 2 1 43782U 18099AA 26124.66390538 .00008330 00000-0 37602-3 0 9991 2 43782 97.4089 178.7308 0012049 90.2764 269.9852 15.21172995406419 SnugLite 1 43784U 18099AC 26124.42579387 .00011526 00000-0 44763-3 0 9995 2 43784 97.3899 179.1610 0004492 91.4766 268.6988 15.26227432406641 ITASat 1 1 43786U 18099AE 26124.66915632 .00006831 00000-0 33359-3 0 9992 2 43786 97.4059 177.0601 0013962 139.6559 220.5714 15.18497725406308 EAGLET 1 1 43790U 18099AJ 26124.79321273 .00003950 00000-0 22949-3 0 9995 2 43790 97.4263 175.6141 0012592 131.0164 229.2158 15.12608491405775 ESEO 1 43792U 18099AL 26124.67393779 .00001306 00000-0 98264-4 0 9991 2 43792 97.3998 163.9215 0013359 118.5286 241.7287 15.04105881405262 JO-97 1 43803U 18099AX 26124.42539538 .00015853 00000-0 51033-3 0 9996 2 43803 97.4156 187.1497 0007039 75.8792 284.3232 15.32278933406924 Suomi 100 1 43804U 18099AY 26124.71971339 .00012239 00000-0 45747-3 0 9998 2 43804 97.4216 185.3016 0011547 78.4561 281.7974 15.27431416406780 ISAT 1 43879U 18111D 26124.78003659 .00075077 00000-0 97445-3 0 9994 2 43879 97.5906 56.9138 0008725 99.4230 260.8012 15.58542998404395 UWE-4 1 43880U 18111E 26124.29502078 .00029037 00000-0 64718-3 0 9993 2 43880 97.5863 50.7608 0010571 115.9415 244.2923 15.43496269404002 Sparrow 1 43881U 18111F 26124.82033367 .00104301 00000-0 10762-2 0 9990 2 43881 97.6134 61.9316 0007530 119.0733 241.1280 15.64425487404575 Prox-1 1 44339U 19036A 26124.86403997 .00014243 00000-0 14257-2 0 9998 2 44339 23.9962 43.4019 0006382 250.3420 109.6391 14.89599654367007 Taurus 1 1 44530U 19059C 26124.80228152 .00008360 00000-0 13498-2 0 9997 2 44530 98.6385 286.9638 0009693 91.6746 268.5570 14.71631679352265 TO-108 1 44881U 19093C 26124.82889502 .00001386 00000-0 16270-3 0 9991 2 44881 97.7541 198.1168 0012366 225.5813 134.4392 14.86450315344978 RS-44 1 44909U 19096E 26124.77081882 .00000018 00000-0 35367-4 0 9994 2 44909 82.5253 8.5581 0216467 245.8086 112.0254 12.79748031296799 SALSAT 1 46495U 20068K 26124.50762341 .00008113 00000-0 28903-3 0 9995 2 46495 97.8860 124.9370 0011725 95.9608 264.2967 15.29157477308686 CSS (TIANHE-1) 1 48274U 21035A 26124.72330958 .00027367 00000-0 29196-3 0 9993 2 48274 41.4668 226.5240 0005464 331.3769 28.6770 15.63304551286377 CUTE 1 49263U 21088D 26124.78642579 .00111202 00000-0 71505-3 0 9994 2 49263 97.4202 220.5032 0000437 99.1186 261.0128 15.75879215255688 TeikyoSat 4 1 49396U 21102B 26124.56663361 .00002483 00000-0 15909-3 0 9992 2 49396 97.3702 155.7432 0013724 84.7500 275.5295 15.09352308246147 Z-Sat 1 49399U 21102E 26124.82642852 .00004393 00000-0 21884-3 0 9997 2 49399 97.3358 161.4675 0017845 43.5574 316.7065 15.17936792246868 KOSEN 1 1 49402U 21102H 26124.09143609 .00007598 00000-0 29540-3 0 9994 2 49402 97.3221 167.1168 0013784 11.4635 348.6915 15.26232197247296 HO-113 1 50466U 21131B 26124.87520781 .00000402 00000-0 13793-3 0 9994 2 50466 98.4959 217.5049 0003313 213.7292 146.3686 14.41315358228877 SNUGLITE 2 1 52899U 22065F 26124.84490183 .00001004 00000-0 19963-3 0 9996 2 52899 98.2143 269.7688 0008127 151.8284 208.3359 14.64265227204651 UmKA 1 (RS40S) 1 57172U 23091G 26124.85835233 .00005564 00000-0 25868-3 0 9991 2 57172 97.5076 183.7317 0011221 269.9971 89.9979 15.20329607157423 CubeBel-2 (EU11S) 1 57175U 23091K 26124.84876588 .00012700 00000-0 46463-3 0 9995 2 57175 97.5074 187.7078 0008486 265.6149 94.4121 15.28161557157685 RS-38S 1 57189U 23091Z 26124.80553041 .00017871 00000-0 53326-3 0 9992 2 57189 97.5109 193.4648 0006891 213.7889 146.2916 15.34672905158038 SONATE-2 1 59112U 24043Q 26124.37384855 .00036392 00000-0 52938-3 0 9992 2 59112 97.5491 272.2067 0006349 7.8052 352.3300 15.55659492121073 GRBBeta 1 60237U 24128C 26124.80993073 .00004005 00000-0 27948-3 0 9991 2 60237 61.9916 8.4142 0046154 125.6315 234.9090 15.06289061 99737 Curium One 1 60242U 24128H 26124.79138500 .00008573 00000-0 49928-3 0 9997 2 60242 61.9801 359.3931 0045765 122.1926 238.3620 15.11821598 99894 ROBUSTA-3A 1 60243U 24128J 26124.79855083 .00008224 00000-0 48987-3 0 9997 2 60243 61.9879 1.6022 0046878 119.6127 240.9650 15.11005837 99867 CatSat 1 60246U 24125J 26124.80039050 .00057220 00000-0 86649-3 0 9994 2 60246 97.2127 336.8860 0022374 346.3714 13.6933 15.54185988100648 HYPERVIEW-1G (RS66S) 1 61772U 24199AP 26124.74029095 .00096854 00000-0 91493-3 0 9990 2 61772 97.2955 2.5841 0008643 85.4335 274.7913 15.66663705127852 AO-123 1 61781U 24199AY 26124.82406184 .00008102 00000-0 23967-3 0 9997 2 61781 97.3053 353.8933 0015861 103.4387 256.8625 15.35043231127273 JINJUSat 1B 1 63210U 25052A 26124.66766183 .00017063 00000-0 55117-3 0 9993 2 63210 97.4050 21.4011 0001873 202.4763 157.6397 15.32172969 63430 NUSHSAT 1 1 63211U 25052B 26124.45024197 .00019002 00000-0 57378-3 0 9999 2 63211 97.4026 21.6106 0001542 200.8675 159.2506 15.34302500 63436 TEVEL2-4 1 63213U 25052D 26124.66758632 .00019320 00000-0 60547-3 0 9997 2 63213 97.3947 21.0292 0000489 208.0978 152.0238 15.33117073 63446 TEVEL2-5 1 63214U 25052E 26124.68351628 .00018960 00000-0 59707-3 0 9999 2 63214 97.3941 21.0047 0000517 213.3901 146.7308 15.32965882 63442 TEVEL2-6 1 63215U 25052F 26124.23785090 .00016637 00000-0 52529-3 0 9999 2 63215 97.3950 20.5441 0000561 229.4429 130.6764 15.32911121 63374 TEVEL2-1 1 63217U 25052H 26124.44833581 .00016815 00000-0 53883-3 0 9995 2 63217 97.3925 20.4285 0000534 306.0436 54.0756 15.32434759 63392 TEVEL2-3 1 63218U 25052J 26124.50971261 .00018379 00000-0 58766-3 0 9993 2 63218 97.3926 20.5066 0000566 307.0244 53.0946 15.32485733 63405 TEVEL2-2 1 63219U 25052K 26124.44884767 .00016988 00000-0 54424-3 0 9992 2 63219 97.3923 20.4306 0000588 308.9607 51.1582 15.32440706 63390 TEVEL2-9 1 63237U 25052AD 26124.43697493 .00015347 00000-0 52103-3 0 9999 2 63237 97.3986 19.8843 0004369 309.0335 51.0517 15.30582944 63338 TEVEL2-7 1 63238U 25052AE 26124.66615742 .00016923 00000-0 57862-3 0 9990 2 63238 97.3989 20.0462 0004475 308.2291 51.8546 15.30330572 63364 TEVEL2-8 1 63239U 25052AF 26124.67392132 .00016485 00000-0 56407-3 0 9994 2 63239 97.3989 20.0320 0004411 308.9447 51.1400 15.30312128 63367 HYDRA-W 1 63490U 25052BL 26113.93882235 .05662091 24406-5 29537-2 0 9997 2 63490 97.3690 18.2798 0008685 203.5899 156.4993 16.20186780 62336 HADES-ICM (SO-125) 1 63492U 25052BN 26124.15808950 .00532026 00000-0 22419-2 0 9997 2 63492 97.3803 27.5241 0006071 158.8991 201.2530 15.84117278 63839 SPIRONE 1 66657U 25274H 26124.77164779 .00001975 00000-0 19342-3 0 9997 2 66657 97.7477 54.6927 0012762 151.7775 208.4139 14.93370214 23744 K-HERO 1 66660U 25274L 26124.78851481 .00001561 00000-0 15235-3 0 9993 2 66660 97.7479 54.8381 0014450 157.4863 202.6994 14.93796637 23750 SNUGLITE-III DURI 1 66661U 25274M 26124.77771902 .00001483 00000-0 14473-3 0 9998 2 66661 97.7478 54.8461 0015048 158.4484 201.7372 14.93854934 23758 SilverSat 1 66909U 98067XV 26113.44966717 .07226154 12288-4 11979-2 0 9998 2 66909 51.6027 190.0749 0007952 333.4666 26.5949 16.32457272 22308 SAKHACUBE-CHOLBON 1 67290U 25313AU 26124.18214453 .00009217 00000-0 38181-3 0 9994 2 67290 97.3941 199.7923 0010560 145.0140 215.1793 15.24080997 19278 RS95S (QMR-KWT-2) 1 67291U 25313AV 26124.73044713 .00014543 00000-0 58147-3 0 9998 2 67291 97.3939 200.4299 0010353 142.6290 217.5669 15.25157360 19369 Ten-Koh2 1 68261U 25241B 26124.39746939 .00005899 00000-0 25866-3 0 9993 2 68261 51.6495 167.9653 0005960 4.8212 355.2822 15.23338324 8233 JACK-002 1 68417U 26067B 26124.81888618 .00007340 00000-0 35532-3 0 9995 2 68417 97.4549 83.9738 0004056 80.7293 279.4399 15.18856099 5367 DISCO 2 1 68431U 26067R 26124.82934663 .00009818 00000-0 47966-3 0 9990 2 68431 97.4582 83.9775 0003790 120.2269 239.9341 15.18444462 5363 HADES-SA (SpinnyONE) 1 68446U 26067AG 26123.86700165 .00018231 00000-0 90835-3 0 9999 2 68446 97.4392 82.8883 0005604 210.2586 149.8325 15.17602110 5203 PARUS-6U1 1 68456U 26067AS 26124.79360029 .00005462 00000-0 27918-3 0 9998 2 68456 97.4532 83.8496 0004859 195.4036 164.7050 15.17067146 5357 SAL-E 1 68458U 26067AU 26124.59558414 .00007679 00000-0 39016-3 0 9999 2 68458 97.4460 83.6234 0004732 206.3079 153.7915 15.17144335 5327 FSI-SAT 2 1 68792U 26088A 26115.68414791 .00000849 00000-0 61705-4 0 9995 2 68792 97.4990 266.2992 0012809 287.5176 72.4651 15.06389719 389 OrigamiSat 2 1 68795U 26088D 26124.83916958 .00006097 00000-0 39986-3 0 9993 2 68795 97.4973 275.2403 0015372 221.7254 138.2802 15.07939832 1765 ARICA 2 1 68796U 26088E 26122.84780610 .00008044 00000-0 52474-3 0 9998 2 68796 97.5006 273.2953 0015124 230.9053 129.0831 15.08041564 1460 WASEDA-SAT-ZERO-II 1 68797U 26088F 26124.30724042 .00001686 00000-0 11306-3 0 9993 2 68797 97.5118 274.7352 0015249 225.0721 134.9271 15.08113870 1686 MANGARO-II-Piscus 1 68798U 26088G 26121.45219413 .00007198 00000-0 46480-3 0 9993 2 68798 97.4970 271.9423 0017832 239.0231 120.9246 15.08420163 1257 IO-86 1 40931U 25360.30710720 .00000000 00000-0 12800-3 0 00 2 40931 6.0006 332.5373 0012733 338.8432 8.1437 14.79075515 01 LILIUM-4 1 71922C 26067AC 26089.50133053 -.00014632 00000 0 -74472-3 0 04 2 71922 97.4497 49.1617 0004341 5.9603 355.7042 15.16896692 16